FW7205 Weather Reports


time (UTC)temp
C
wind
direction
speed
KPH
gust
KPH
rain 1hr
cm
rain 24hr
cm
rain mn
cm
humidity
%
barometer
mb
20260831231611 35 0 0.0 1.6 0.00 0.28 0.00 47 1012.0
20260831230106 35 0 0.0 0.0 0.00 0.28 0.00 46 1012.0
20260831224609 36 0 0.0 3.2 0.00 0.28 0.00 45 1012.3
20260831223105 36 96 0.0 3.2 0.00 0.28 0.00 45 1012.1
20260831221607 36 0 0.0 3.2 0.00 0.28 0.00 44 1012.3
20260831220105 36 0 1.6 4.8 0.00 0.28 0.00 44 1012.2
20260831214630 36 0 0.0 3.2 0.00 0.28 0.00 46 1012.4
20260831213103 36 0 0.0 3.2 0.00 0.28 0.00 44 1012.5
20260831211608 36 103 1.6 8.0 0.00 0.28 0.00 44 1012.6
20260831210100 36 0 0.0 4.8 0.00 0.28 0.00 44 1012.8
20260831204600 37 70 1.6 8.0 0.00 0.28 0.00 44 1013.0
20260831203105 37 103 0.0 4.8 0.00 0.28 0.00 43 1013.2
20260831201558 36 0 0.0 4.8 0.00 0.28 0.00 46 1013.5
20260831200100 36 0 1.6 4.8 0.00 0.28 0.00 44 1013.7
20260831194624 36 76 1.6 4.8 0.00 0.28 0.00 46 1014.1
20260831193101 36 76 3.2 8.0 0.00 0.28 0.00 46 1014.4
20260831191603 36 74 0.0 6.4 0.00 0.28 0.00 46 1014.5
20260831190111 36 69 1.6 6.4 0.00 0.28 0.00 47 1014.6
20260831184605 36 11 0.0 4.8 0.00 0.28 0.00 47 1014.7
20260831183108 36 67 1.6 6.4 0.00 0.28 0.00 47 1015.2
20260831181601 35 0 0.0 3.2 0.00 0.28 0.00 49 1015.0
20260831180101 35 117 0.0 4.8 0.00 0.28 0.00 51 1015.5
20260831174604 35 65 1.6 8.0 0.00 0.28 0.00 49 1015.7
20260831173100 35 246 0.0 9.7 0.00 0.28 0.00 50 1015.8
20260831171602 34 66 1.6 6.4 0.00 0.28 0.00 53 1015.7
20260831170107 33 0 1.6 6.4 0.00 0.28 0.00 56 1015.7
20260831164613 33 0 1.6 4.8 0.00 0.28 0.00 57 1016.0
20260831163106 32 360 0.0 4.8 0.00 0.28 0.00 59 1016.1
20260831161605 31 0 0.0 4.8 0.00 0.28 0.00 64 1016.2
20260831154629 30 133 0.0 1.6 0.00 0.28 0.00 71 1016.0
20260831153102 29 0 0.0 3.2 0.00 0.28 0.00 76 1016.0
20260831151601 28 0 0.0 1.6 0.00 0.28 0.00 79 1015.8
20260831150104 28 0 0.0 3.2 0.00 0.28 0.00 83 1015.8
20260831144610 27 0 0.0 1.6 0.00 0.28 0.00 86 1015.9
20260831143112 27 0 0.0 1.6 0.00 0.28 0.00 89 1016.0
20260831141607 26 0 0.0 0.0 0.00 0.28 0.00 90 1015.7
20260831140107 26 0 0.0 0.0 0.00 0.28 0.00 90 1015.7
20260831134604 25 0 0.0 0.0 0.00 0.28 0.00 91 1015.6
20260831133102 25 0 0.0 0.0 0.00 0.28 0.00 91 1015.7
20260831131605 25 0 0.0 0.0 0.00 0.28 0.00 90 1015.3
20260831130121 24 0 0.0 0.0 0.00 0.28 0.00 90 1015.1
20260831124606 24 0 0.0 0.0 0.00 0.28 0.00 89 1015.1
20260831123107 24 0 0.0 0.0 0.00 0.28 0.00 89 1014.8
20260831121612 24 0 0.0 0.0 0.00 0.28 0.00 89 1014.8
20260831120100 24 0 0.0 0.0 0.00 0.28 0.00 88 1014.7
20260831114607 24 0 0.0 0.0 0.00 0.28 0.00 88 1014.6
20260831113102 24 0 0.0 0.0 0.00 0.28 0.00 88 1014.4
20260831111604 24 0 0.0 0.0 0.00 0.28 0.00 87 1014.6
20260831110107 25 0 0.0 0.0 0.00 0.28 0.00 87 1014.4
20260831104605 25 0 0.0 0.0 0.00 0.28 0.00 87 1014.3
20260831103100 25 0 0.0 0.0 0.00 0.28 0.00 86 1014.4
20260831101606 25 0 0.0 0.0 0.00 0.28 0.00 86 1014.3
20260831094601 25 0 0.0 0.0 0.00 0.28 0.00 85 1014.3
20260831093102 25 0 0.0 0.0 0.00 0.28 0.00 84 1014.2
20260831091611 25 0 0.0 0.0 0.00 0.28 0.00 84 1014.0
20260831084610 25 0 0.0 0.0 0.00 0.28 0.00 84 1014.0
20260831083101 25 0 0.0 1.6 0.00 0.28 0.00 83 1014.1
20260831081607 26 0 0.0 0.0 0.00 0.28 0.00 82 1014.2
20260831074604 26 0 0.0 0.0 0.00 0.28 0.00 81 1014.4
20260831073111 26 0 0.0 0.0 0.00 0.28 0.00 81 1014.3
20260831071606 26 0 0.0 0.0 0.00 0.28 0.00 80 1014.5
20260831070112 26 0 0.0 0.0 0.00 0.28 0.00 80 1014.4
20260831064604 26 0 0.0 0.0 0.00 0.28 0.00 79 1014.5
20260831063109 27 0 0.0 0.0 0.00 0.28 0.00 79 1014.6
20260831061601 27 0 0.0 1.6 0.00 0.28 0.00 78 1014.7
20260831060114 27 0 0.0 1.6 0.00 0.28 0.00 77 1014.5
20260831054605 27 0 0.0 1.6 0.00 0.28 0.00 77 1014.5
20260831053105 27 0 0.0 3.2 0.00 0.28 0.00 76 1014.4
20260831051606 28 0 0.0 1.6 0.00 0.28 0.00 75 1014.3
20260831050103 28 0 0.0 1.6 0.00 0.28 0.00 75 1014.2
20260831044608 28 0 0.0 1.6 0.00 0.28 0.28 74 1014.2
20260831043103 28 0 0.0 3.2 0.00 0.28 0.28 73 1014.0
20260831041645 28 0 0.0 1.6 0.00 0.28 0.28 72 1014.1
20260831040109 28 209 0.0 1.6 0.00 0.28 0.28 70 1014.2
20260831034606 29 0 0.0 1.6 0.00 0.28 0.28 69 1013.9
20260831033102 29 0 0.0 3.2 0.00 0.28 0.28 67 1013.7
20260831031559 29 200 0.0 3.2 0.00 0.28 0.28 66 1013.4
20260831030108 29 0 0.0 3.2 0.00 0.28 0.28 65 1013.4
20260831024621 29 115 0.0 1.6 0.00 0.28 0.28 64 1013.2
20260831023113 28 136 0.0 3.2 0.00 0.28 0.28 63 1012.9
20260831021604 28 0 0.0 1.6 0.05 0.28 0.28 61 1012.6
20260831020104 29 0 0.0 0.0 0.15 0.28 0.28 64 1012.3
20260831014601 30 0 0.0 0.0 0.23 0.43 0.28 61 1012.3
20260831013110 31 0 0.0 0.0 0.28 0.43 0.28 60 1012.0
20260831011600 31 0 0.0 0.0 0.23 0.38 0.23 60 1011.9
20260831010122 32 0 0.0 0.0 0.13 0.28 0.13 57 1012.0
20260831004601 33 0 0.0 1.6 0.05 0.23 0.05 52 1011.8
20260831003106 34 0 0.0 3.2 0.00 0.18 0.00 50 1011.8
20260831001607 34 0 0.0 3.2 0.00 0.18 0.00 47 1011.9
20260831000118 35 136 0.0 4.8 0.00 0.18 0.00 46 1012.0
20260830234603 35 0 0.0 8.0 0.00 0.18 0.00 43 1012.0
20260830233104 35 252 0.0 3.2 0.00 0.18 0.00 43 1011.9